This is the latest recevied weather packets stored in our database for station/object WP3OF-2. If no packets are shown the sender has not sent any weather packets the latest 10 day(s).
| Time | Temp. | Humidity | Pressure | Rain* | Wind** | Luminosity | Snow |
|---|---|---|---|---|---|---|---|
| 1787942074 | 23.33° C | 97% | 1024.9 hPa | 0 mm | - | 106 W/m² | - |
| 1787941770 | 23.33° C | 98% | 1024.9 hPa | 0 mm | - | 133 W/m² | - |
| 1787941468 | 23.33° C | 99% | 1024.9 hPa | 0 mm | - | 186 W/m² | - |
| 1787941162 | 23.33° C | 99% | 1024.9 hPa | 0 mm | - | 191 W/m² | - |
| 1787940857 | 23.33° C | 99% | 1024.9 hPa | 0 mm | - | 191 W/m² | - |
| 1787940555 | 22.78° C | 99% | 1024.9 hPa | 0 mm | - | 282 W/m² | - |
| 1787940249 | 22.78° C | 99% | 1024.9 hPa | 0 mm | - | 100 W/m² | - |
| 1787939944 | 22.78° C | 99% | 1024.9 hPa | 0 mm | - | 100 W/m² | - |
| 1787939643 | 22.78° C | 99% | 1025.2 hPa | 0 mm | - | 106 W/m² | - |
| 1787939338 | 22.78° C | 99% | 1024.9 hPa | 0 mm | - | 177 W/m² | - |
| 1787939033 | 22.78° C | 99% | 1025.6 hPa | 0 mm | - | 100 W/m² | - |
| 1787938731 | 22.78° C | 99% | 1025.2 hPa | 0 mm | - | 62 W/m² | - |
| 1787938428 | 22.78° C | 99% | 1025.2 hPa | 0 mm | - | 62 W/m² | - |
| 1787938123 | 23.89° C | 98% | 1025.2 hPa | 0 mm | - | 59 W/m² | - |
| 1787937826 | 23.33° C | 98% | 1025.2 hPa | 0 mm | - | 49 W/m² | - |
| 1787937515 | 23.89° C | 97% | 1025.2 hPa | 0 mm | - | 76 W/m² | - |
| 1787937210 | 23.89° C | 96% | 1025.6 hPa | 0 mm | - | 173 W/m² | - |
| 1787936904 | 23.89° C | 96% | 1026 hPa | 0 mm | - | 545 W/m² | - |
| 1787936603 | 24.44° C | 96% | 1026 hPa | 0 mm | - | 230 W/m² | - |
| 1787936302 | 24.44° C | 94% | 1026 hPa | 0 mm | - | 472 W/m² | - |
| 1787935999 | 24.44° C | 94% | 1026 hPa | 0 mm | - | 363 W/m² | - |
| 1787935694 | 25° C | 92% | 1026 hPa | 0 mm | - | 1008 W/m² | - |
| 1787935390 | 25° C | 91% | 1026 hPa | 0 mm | - | 971 W/m² | - |
| 1787935086 | 25° C | 89% | 1026 hPa | 0 mm | - | 224 W/m² | - |
| 1787934781 | 24.44° C | 91% | 1026 hPa | 0 mm | - | 140 W/m² | - |
* Rain latest hour (hover to see other rain measurements)
** Current wind speed in m/s (hover to see current wind gust speed)